Weather History for Plattsmouth, NE

Change the Weather History Date:

Sunday, April 13, 2014

  Actual Average (KOFF) Record (KOFF)
Temperature  
Mean Temperature 47 °F -  
Max Temperature 62 °F 60 °F 87 °F (2006)
Min Temperature 31 °F 40 °F 24 °F (1997)
Degree Days  
Heating Degree Days 18    
Moisture  
Dew Point 42 °F    
Average Humidity 88    
Maximum Humidity 94    
Minimum Humidity 74    
Precipitation  
Precipitation 1.15 in - - ()
Sea Level Pressure  
Sea Level Pressure 29.67 in    
Wind  
Wind Speed 14 mph (North)    
Max Wind Speed 26 mph    
Max Gust Speed 39 mph    
Visibility 5 miles    
Events Rain , Snow , Thunderstorm    
Averages and records for this station are not official NWS values.
T = Trace of Precipitation, MM = Missing Value Source: NWS Daily Summary

Daily Weather History Graph

Daily Weather History Graph

Search for Another Location

Airport:

Trip Planner

Search our weather history database for the weather conditions in past years. The results will help you decide how hot, cold, wet, or windy it might be!

Date:

Astronomy

Apr. 13, 2014 Rise Set
Actual Time 6:47 AM CDT 8:01 PM CDT
Civil Twilight 6:19 AM CDT 8:29 PM CDT
Nautical Twilight 5:45 AM CDT 9:03 PM CDT
Astronomical Twilight 5:09 AM CDT 9:39 PM CDT
Moon 6:39 PM CDT (4/13) 5:47 AM CDT (4/13)
Length of Visible Light 14h 10m
Length of Day
13h 13m
Waxing Gibbous, 97% of the Moon is Illuminated
Apr 13
Waxing Gibbous
Apr 15
Full
Apr 22
Last Quarter
Apr 29
New
May 6
First Quarter

Hourly Weather History & Observations

Time (CDT) Temp. Windchill Dew Point Humidity Pressure Visibility Wind Dir Wind Speed Gust Speed Precip Events Conditions
12:15 AM 62.6 °F - 54.3 °F 74% 29.56 in 10.0 mi NNW 3.5 mph - N/A   Scattered Clouds
12:35 AM 61.9 °F - 53.8 °F 75% 29.57 in 10.0 mi North 5.8 mph - N/A   Clear
12:55 AM 61.5 °F - 53.6 °F 75% 29.57 in 10.0 mi North 8.1 mph - N/A   Clear
1:15 AM 62.1 °F - 54.1 °F 75% 29.59 in 10.0 mi North 10.4 mph 16.1 mph N/A   Clear
1:35 AM 60.8 °F - 53.8 °F 78% 29.59 in 10.0 mi North 8.1 mph - N/A Thunderstorm Scattered Clouds
1:55 AM 60.1 °F - 53.6 °F 79% 29.62 in 10.0 mi North 8.1 mph 16.1 mph N/A   Mostly Cloudy
2:15 AM 59.7 °F - 53.1 °F 79% 29.63 in 7.0 mi North 6.9 mph - N/A   Overcast
2:35 AM 59.2 °F - 52.7 °F 79% 29.62 in 10.0 mi North 11.5 mph 17.3 mph N/A   Mostly Cloudy
2:55 AM 58.3 °F - 52.3 °F 81% 29.62 in 10.0 mi North 12.7 mph - N/A   Scattered Clouds
3:15 AM 57.7 °F - 52.3 °F 82% 29.61 in 7.0 mi North 12.7 mph 18.4 mph N/A Thunderstorm Thunderstorm
3:35 AM 57.4 °F - 52.3 °F 83% 29.61 in 7.0 mi North 9.2 mph - N/A   Clear
3:55 AM 56.7 °F - 52.2 °F 85% 29.61 in 7.0 mi North 8.1 mph - N/A   Clear
4:15 AM 56.1 °F - 51.8 °F 85% 29.60 in 7.0 mi North 15.0 mph 20.7 mph N/A   Clear
4:35 AM 55.4 °F - 51.1 °F 85% 29.61 in 7.0 mi North 15.0 mph 23.0 mph N/A   Mostly Cloudy
4:55 AM 54.7 °F - 50.5 °F 86% 29.61 in 7.0 mi North 12.7 mph 20.7 mph N/A   Overcast
5:15 AM 53.6 °F - 49.6 °F 86% 29.60 in 7.0 mi North 15.0 mph 19.6 mph N/A   Overcast
5:35 AM 53.6 °F - 49.5 °F 86% 29.60 in 7.0 mi NNE 11.5 mph - N/A   Overcast
5:55 AM 52.9 °F - 48.6 °F 85% 29.60 in 7.0 mi North 11.5 mph 18.4 mph N/A   Overcast
6:15 AM 51.8 °F - 47.7 °F 86% 29.62 in 7.0 mi NNE 16.1 mph 20.7 mph N/A   Overcast
6:35 AM 50.9 °F - 47.3 °F 87% 29.63 in 5.0 mi North 10.4 mph 19.6 mph N/A   Overcast
6:55 AM 50.7 °F - 47.3 °F 88% 29.64 in 5.0 mi North 13.8 mph 18.4 mph N/A Rain Light Rain
7:15 AM 50.0 °F - 47.3 °F 90% 29.63 in 2.0 mi North 15.0 mph 20.7 mph 0.09 in Rain Heavy Rain
7:35 AM 49.1 °F - 46.8 °F 92% 29.62 in 2.5 mi North 17.3 mph 27.6 mph 0.11 in Thunderstorm Overcast
7:55 AM 48.7 °F - 46.6 °F 92% 29.57 in 1.5 mi NNE 21.9 mph 28.8 mph 0.12 in Rain Light Rain
8:15 AM 48.7 °F - 46.8 °F 93% 29.62 in 2.5 mi North 13.8 mph 29.9 mph N/A Thunderstorm Overcast
8:35 AM 48.2 °F - 46.2 °F 93% 29.61 in 2.0 mi North 20.7 mph 28.8 mph N/A Rain , Thunderstorm Light Thunderstorms and Rain
8:55 AM 48.2 °F - 46.0 °F 92% 29.59 in 2.0 mi North 19.6 mph 28.8 mph N/A Thunderstorm Overcast
9:15 AM 47.3 °F - 45.5 °F 93% 29.68 in 2.5 mi ENE 9.2 mph 25.3 mph 0.06 in Rain , Thunderstorm Heavy Thunderstorms and Rain
9:55 AM 46.8 °F - 45.0 °F 93% 29.68 in 2.0 mi NNW 16.1 mph 23.0 mph 0.56 in Rain , Thunderstorm Light Thunderstorms and Rain
10:15 AM 46.8 °F - 44.8 °F 93% 29.69 in 1.2 mi NNW 13.8 mph 32.2 mph 0.08 in Rain , Thunderstorm Thunderstorms and Rain
10:35 AM 46.9 °F - 45.0 °F 93% 29.68 in 3.0 mi North 12.7 mph 21.9 mph 0.09 in Rain , Thunderstorm Light Thunderstorms and Rain
10:55 AM 47.3 °F - 45.0 °F 92% 29.65 in 4.0 mi North 19.6 mph 31.1 mph 0.09 in   Light Drizzle
11:15 AM 46.9 °F - 44.4 °F 91% 29.64 in 3.0 mi NNE 25.3 mph 35.7 mph 0.02 in Rain Rain
11:35 AM 47.3 °F - 44.2 °F 89% 29.63 in 7.0 mi NNE 20.7 mph 33.4 mph 0.02 in Rain , Thunderstorm Light Thunderstorms and Rain
11:55 AM 46.8 °F - 43.7 °F 89% 29.63 in 7.0 mi NNE 19.6 mph 35.7 mph 0.02 in Rain , Thunderstorm Light Thunderstorms and Rain
12:15 PM 46.6 °F - 42.6 °F 86% 29.63 in 10.0 mi North 25.3 mph 34.5 mph N/A Thunderstorm Thunderstorm
12:35 PM 46.4 °F 38.1 °F 42.4 °F 86% 29.63 in 7.0 mi NNE 24.2 mph 32.2 mph 0.01 in Rain , Thunderstorm Rain
12:55 PM 45.9 °F 38.8 °F 42.8 °F 89% 29.63 in 1.5 mi North 17.3 mph 33.4 mph 0.11 in Rain , Thunderstorm Light Thunderstorms and Rain
1:15 PM 45.9 °F 37.0 °F 43.0 °F 90% 29.59 in 7.0 mi NNE 26.5 mph 33.4 mph N/A Thunderstorm Thunderstorm
1:35 PM 44.2 °F 35.9 °F 41.0 °F 88% 29.61 in 3.0 mi North 20.7 mph 35.7 mph 0.04 in Rain , Thunderstorm Heavy Thunderstorms and Rain
1:55 PM 42.8 °F 35.4 °F 39.6 °F 88% 29.65 in 10.0 mi North 15.0 mph 28.8 mph 0.04 in Rain , Thunderstorm Light Thunderstorms and Rain
2:15 PM 42.4 °F 35.0 °F 39.7 °F 90% 29.67 in 1.5 mi NNW 15.0 mph 32.2 mph 0.06 in Rain Rain
2:35 PM 42.8 °F 34.3 °F 40.1 °F 90% 29.64 in 4.0 mi North 19.6 mph 26.5 mph 0.09 in Rain , Thunderstorm Light Thunderstorms and Rain
2:55 PM 42.1 °F 34.5 °F 39.4 °F 90% 29.64 in 10.0 mi North 15.0 mph 24.2 mph 0.09 in Rain Light Rain
3:15 PM 41.0 °F 32.5 °F 38.3 °F 90% 29.66 in 1.2 mi North 17.3 mph 25.3 mph 0.09 in Thunderstorm Overcast
3:35 PM 40.3 °F 32.2 °F 37.6 °F 90% 29.67 in 7.0 mi NNW 15.0 mph 27.6 mph 0.12 in Rain Light Rain
3:55 PM 39.2 °F 29.3 °F 36.5 °F 90% 29.67 in 10.0 mi NNW 20.7 mph 28.8 mph 0.12 in Rain Light Rain
4:35 PM 37.8 °F 26.6 °F 34.9 °F 89% 29.66 in 10.0 mi NNW 24.2 mph 31.1 mph N/A Thunderstorm Overcast
4:55 PM 36.9 °F 25.9 °F 34.0 °F 89% 29.67 in 10.0 mi NNW 21.9 mph 32.2 mph N/A   Overcast
5:15 PM 36.0 °F 24.4 °F 32.5 °F 87% 29.67 in 10.0 mi NNW 23.0 mph 36.8 mph N/A   Overcast
5:35 PM 35.6 °F 23.4 °F 32.0 °F 87% 29.67 in 10.0 mi NNW 25.3 mph 35.7 mph N/A   Overcast
5:55 PM 34.9 °F 22.5 °F 32.0 °F 89% 29.67 in 10.0 mi NNW 25.3 mph 35.7 mph N/A   Overcast
6:15 PM 34.3 °F 21.5 °F 31.1 °F 88% 29.68 in 7.0 mi NNW 26.5 mph 36.8 mph N/A   Overcast
6:35 PM 33.8 °F 20.8 °F 31.6 °F 92% 29.70 in 1.2 mi NNW 26.5 mph 35.7 mph N/A Snow Light Snow
6:55 PM 33.8 °F 21.0 °F 31.8 °F 92% 29.70 in 1.5 mi NNW 25.3 mph 39.1 mph N/A Snow Light Snow
7:15 PM 34.0 °F 22.4 °F 32.0 °F 92% 29.71 in 2.5 mi NNW 20.7 mph 36.8 mph N/A   Overcast
7:35 PM 33.8 °F 21.6 °F 31.8 °F 92% 29.71 in 2.0 mi NNW 23.0 mph 33.4 mph N/A   Overcast
7:55 PM 33.8 °F 21.9 °F 31.8 °F 92% 29.74 in 3.0 mi NNW 21.9 mph 33.4 mph N/A   Overcast
8:15 PM 33.4 °F 21.7 °F 31.5 °F 92% 29.77 in 3.0 mi NNW 20.7 mph 27.6 mph N/A   Overcast
8:35 PM 33.1 °F 21.2 °F 31.1 °F 92% 29.78 in 3.0 mi NNW 20.7 mph 25.3 mph N/A   Overcast
8:55 PM 32.9 °F 19.8 °F 31.1 °F 93% 29.80 in 2.0 mi NNW 25.3 mph 31.1 mph N/A Snow Light Snow
9:15 PM 32.9 °F 20.1 °F 30.9 °F 92% 29.81 in 1.8 mi NNW 24.2 mph 33.4 mph N/A Snow Light Snow
9:35 PM 32.5 °F 19.6 °F 30.9 °F 94% 29.83 in 1.8 mi NW 24.2 mph 29.9 mph N/A Snow Light Snow
9:55 PM 32.2 °F 18.9 °F 30.6 °F 94% 29.85 in 1.2 mi NNW 25.3 mph 34.5 mph N/A Snow Light Snow
10:15 PM 32.0 °F 19.2 °F 30.2 °F 93% 29.87 in 1.2 mi NNW 23.0 mph 31.1 mph N/A Snow Light Snow
10:35 PM 32.0 °F 18.4 °F 30.0 °F 92% 29.88 in 1.2 mi NNW 26.5 mph 36.8 mph N/A Snow Light Snow
10:55 PM 32.0 °F 18.4 °F 29.8 °F 92% 29.90 in 1.8 mi NNW 26.5 mph 32.2 mph N/A Snow Light Snow
11:15 PM 32.0 °F 19.2 °F 29.5 °F 90% 29.91 in 2.0 mi NNW 23.0 mph 33.4 mph N/A Snow Light Snow
11:35 PM 32.0 °F 18.4 °F 29.3 °F 90% 29.91 in 1.8 mi NNW 26.5 mph 32.2 mph N/A Snow Light Snow
11:55 PM 31.8 °F 18.7 °F 29.1 °F 90% 29.91 in 1.8 mi NNW 24.2 mph 32.2 mph N/A Snow Light Snow